| time (UTC) | temp C | wind direction | speed KPH | gust KPH | rain 1hr cm | rain 24hr cm | rain mn cm | humidity % | barometer mb |
| 20260504214614 | 16 | 207 | 22.5 | 37.0 | 0.00 | 0.00 | 0.00 | 76 | 1009.7 |
| 20260504214113 | 16 | 199 | 25.7 | 41.8 | 0.00 | 0.00 | 0.00 | 77 | 1009.7 |
| 20260504213612 | 16 | 195 | 25.7 | 41.8 | 0.00 | 0.00 | 0.00 | 76 | 1009.7 |
| 20260504213111 | 16 | 173 | 25.7 | 40.2 | 0.00 | 0.00 | 0.00 | 75 | 1009.7 |
| 20260504212611 | 16 | 209 | 25.7 | 41.8 | 0.00 | 0.00 | 0.00 | 74 | 1009.7 |
| 20260504212102 | 16 | 204 | 27.4 | 45.1 | 0.00 | 0.00 | 0.00 | 75 | 1009.7 |
| 20260504211605 | 16 | 224 | 25.7 | 45.1 | 0.00 | 0.00 | 0.00 | 76 | 1009.7 |
| 20260504211036 | 16 | 182 | 27.4 | 40.2 | 0.00 | 0.00 | 0.00 | 75 | 1009.7 |
| 20260504210537 | 16 | 183 | 27.4 | 46.7 | 0.00 | 0.00 | 0.00 | 75 | 1009.7 |
| 20260504210038 | 16 | 180 | 30.6 | 46.7 | 0.00 | 0.00 | 0.00 | 76 | 1009.7 |
| 20260504205529 | 16 | 192 | 30.6 | 45.1 | 0.00 | 0.00 | 0.00 | 76 | 1009.7 |
| 20260504205029 | 16 | 219 | 29.0 | 48.3 | 0.00 | 0.00 | 0.00 | 76 | 1009.6 |
| 20260504204524 | 16 | 180 | 30.6 | 48.3 | 0.00 | 0.00 | 0.00 | 75 | 1009.6 |
| 20260504203958 | 16 | 181 | 29.0 | 48.3 | 0.00 | 0.00 | 0.00 | 75 | 1009.7 |
| 20260504203451 | 16 | 153 | 27.4 | 45.1 | 0.00 | 0.00 | 0.00 | 75 | 1009.7 |
| 20260504202950 | 16 | 190 | 29.0 | 45.1 | 0.00 | 0.00 | 0.00 | 74 | 1009.7 |
| 20260504202440 | 16 | 169 | 25.7 | 43.5 | 0.00 | 0.00 | 0.00 | 74 | 1009.7 |
| 20260504201937 | 16 | 199 | 24.1 | 43.5 | 0.00 | 0.00 | 0.00 | 74 | 1009.7 |
| 20260504201435 | 16 | 188 | 24.1 | 43.5 | 0.00 | 0.00 | 0.00 | 73 | 1009.7 |
| 20260504200907 | 16 | 172 | 27.4 | 45.1 | 0.00 | 0.00 | 0.00 | 73 | 1009.7 |
| 20260504200637 | 16 | 178 | 30.6 | 49.9 | 0.00 | 0.00 | 0.00 | 71 | 1009.7 |
| 20260504195903 | 16 | 165 | 32.2 | 49.9 | 0.00 | 0.00 | 0.00 | 69 | 1009.7 |
| 20260504195401 | 16 | 203 | 29.0 | 46.7 | 0.00 | 0.00 | 0.00 | 69 | 1009.9 |
| 20260504195059 | 16 | 165 | 25.7 | 38.6 | 0.00 | 0.00 | 0.00 | 72 | 1009.9 |
| 20260504194308 | 15 | 161 | 25.7 | 37.0 | 0.00 | 0.00 | 0.00 | 74 | 1009.9 |
| 20260504193757 | 16 | 181 | 24.1 | 35.4 | 0.00 | 0.00 | 0.00 | 71 | 1010.1 |
| 20260504193255 | 16 | 160 | 24.1 | 48.3 | 0.00 | 0.00 | 0.00 | 70 | 1010.1 |
| 20260504192957 | 17 | 136 | 22.5 | 48.3 | 0.00 | 0.00 | 0.00 | 67 | 1010.1 |
| 20260504192211 | 16 | 197 | 22.5 | 40.2 | 0.00 | 0.00 | 0.00 | 69 | 1010.2 |
| 20260504191709 | 17 | 188 | 24.1 | 48.3 | 0.00 | 0.00 | 0.00 | 66 | 1010.2 |
| 20260504191416 | 17 | 191 | 24.1 | 48.3 | 0.00 | 0.00 | 0.00 | 64 | 1010.2 |
| 20260504190657 | 17 | 153 | 24.1 | 38.6 | 0.00 | 0.00 | 0.00 | 67 | 1010.5 |
| 20260504190129 | 17 | 188 | 25.7 | 41.8 | 0.00 | 0.00 | 0.00 | 65 | 1010.5 |
| 20260504185627 | 17 | 176 | 25.7 | 41.8 | 0.00 | 0.00 | 0.00 | 65 | 1010.5 |
| 20260504185128 | 17 | 190 | 27.4 | 46.7 | 0.00 | 0.00 | 0.00 | 66 | 1010.5 |
| 20260504184615 | 17 | 185 | 29.0 | 48.3 | 0.00 | 0.00 | 0.00 | 67 | 1010.5 |
| 20260504184116 | 17 | 176 | 29.0 | 48.3 | 0.00 | 0.00 | 0.00 | 66 | 1010.5 |
| 20260504183615 | 17 | 176 | 25.7 | 43.5 | 0.00 | 0.00 | 0.00 | 67 | 1010.7 |
| 20260504183324 | 17 | 163 | 25.7 | 41.8 | 0.00 | 0.00 | 0.00 | 68 | 1010.7 |
| 20260504182549 | 17 | 178 | 25.7 | 46.7 | 0.00 | 0.00 | 0.00 | 69 | 1010.7 |
| 20260504182051 | 17 | 170 | 25.7 | 45.1 | 0.00 | 0.00 | 0.00 | 67 | 1010.8 |
| 20260504181542 | 17 | 207 | 27.4 | 40.2 | 0.00 | 0.00 | 0.00 | 66 | 1010.8 |
| 20260504181044 | 17 | 178 | 27.4 | 43.5 | 0.00 | 0.00 | 0.00 | 65 | 1010.8 |
| 20260504180527 | 17 | 185 | 27.4 | 45.1 | 0.00 | 0.00 | 0.00 | 65 | 1011.1 |
| 20260504180030 | 17 | 186 | 27.4 | 45.1 | 0.00 | 0.00 | 0.00 | 66 | 1011.1 |
| 20260504175510 | 17 | 199 | 24.1 | 49.9 | 0.00 | 0.00 | 0.00 | 67 | 1011.2 |
| 20260504175005 | 17 | 146 | 24.1 | 49.9 | 0.00 | 0.00 | 0.00 | 66 | 1011.2 |
| 20260504174507 | 17 | 175 | 27.4 | 45.1 | 0.00 | 0.00 | 0.00 | 66 | 1011.2 |
| 20260504173950 | 17 | 182 | 29.0 | 45.1 | 0.00 | 0.00 | 0.00 | 67 | 1011.2 |
| 20260504173423 | 17 | 170 | 25.7 | 43.5 | 0.00 | 0.00 | 0.00 | 68 | 1011.2 |
| 20260504172921 | 17 | 162 | 20.9 | 32.2 | 0.00 | 0.00 | 0.00 | 68 | 1011.2 |
| 20260504172423 | 17 | 173 | 19.3 | 30.6 | 0.00 | 0.00 | 0.00 | 68 | 1011.7 |
| 20260504171911 | 17 | 176 | 20.9 | 37.0 | 0.00 | 0.00 | 0.00 | 65 | 1011.7 |
| 20260504171339 | 17 | 199 | 24.1 | 40.2 | 0.00 | 0.00 | 0.00 | 64 | 1011.7 |
| 20260504170837 | 17 | 190 | 25.7 | 43.5 | 0.00 | 0.00 | 0.00 | 66 | 1011.8 |
| 20260504170338 | 17 | 195 | 25.7 | 48.3 | 0.00 | 0.00 | 0.00 | 64 | 1011.8 |
| 20260504150714 | 17 | 171 | 20.9 | 40.2 | 0.00 | 0.00 | 0.00 | 63 | 1012.8 |
| 20260504141254 | 16 | 182 | 20.9 | 40.2 | 0.00 | 0.00 | 0.00 | 62 | 1013.0 |
| 20260504140754 | 16 | 201 | 19.3 | 32.2 | 0.00 | 0.00 | 0.00 | 61 | 1013.3 |
| 20260504140224 | 16 | 175 | 19.3 | 33.8 | 0.00 | 0.00 | 0.00 | 61 | 1013.3 |
| 20260504130611 | 16 | 204 | 19.3 | 27.4 | 0.00 | 0.00 | 0.00 | 58 | 1013.8 |
| 20260504130319 | 15 | 210 | 20.9 | 29.0 | 0.00 | 0.00 | 0.00 | 59 | 1013.8 |
| 20260504110240 | 11 | 204 | 20.9 | 32.2 | 0.00 | 0.00 | 0.00 | 74 | 1014.4 |
| 20260504100515 | 11 | 232 | 24.1 | 33.8 | 0.00 | 0.00 | 0.00 | 70 | 1014.1 |
| 20260504081719 | 11 | 242 | 20.9 | 37.0 | 0.00 | 0.00 | 0.00 | 63 | 1013.9 |
| 20260504081220 | 11 | 219 | 20.9 | 32.2 | 0.00 | 0.00 | 0.00 | 61 | 1013.9 |
| 20260504080705 | 12 | 219 | 22.5 | 32.2 | 0.00 | 0.00 | 0.00 | 60 | 1013.8 |
| 20260504080428 | 12 | 233 | 22.5 | 30.6 | 0.00 | 0.00 | 0.00 | 59 | 1013.8 |
| 20260504060200 | 12 | 230 | 19.3 | 25.7 | 0.00 | 0.00 | 0.00 | 57 | 1013.3 |
| 20260504050554 | 12 | 240 | 19.3 | 25.7 | 0.00 | 0.00 | 0.00 | 55 | 1013.3 |
| 20260504045532 | 12 | 217 | 19.3 | 27.4 | 0.00 | 0.00 | 0.00 | 54 | 1013.3 |
| 20260504045020 | 12 | 234 | 19.3 | 27.4 | 0.00 | 0.00 | 0.00 | 53 | 1013.1 |
| 20260504044519 | 12 | 231 | 19.3 | 27.4 | 0.00 | 0.00 | 0.00 | 54 | 1013.1 |
| 20260504043958 | 12 | 232 | 19.3 | 27.4 | 0.00 | 0.00 | 0.00 | 53 | 1013.1 |
| 20260504043953 | 12 | 238 | 19.3 | 27.4 | 0.00 | 0.00 | 0.00 | 54 | 1012.9 |
| 20260504042931 | 12 | 219 | 19.3 | 27.4 | 0.00 | 0.00 | 0.00 | 53 | 1012.9 |
| 20260504042429 | 12 | 253 | 20.9 | 29.0 | 0.00 | 0.00 | 0.00 | 53 | 1012.9 |
| 20260504042152 | 12 | 230 | 20.9 | 29.0 | 0.00 | 0.00 | 0.00 | 53 | 1012.9 |
| 20260504041429 | 12 | 236 | 19.3 | 27.4 | 0.00 | 0.00 | 0.00 | 54 | 1012.9 |
| 20260504040929 | 12 | 236 | 17.7 | 27.4 | 0.00 | 0.00 | 0.00 | 53 | 1012.8 |
| 20260504040859 | 12 | 214 | 17.7 | 25.7 | 0.00 | 0.00 | 0.00 | 53 | 1012.8 |
| 20260504035919 | 12 | 230 | 17.7 | 27.4 | 0.00 | 0.00 | 0.00 | 53 | 1012.8 |
| 20260504035418 | 12 | 238 | 17.7 | 27.4 | 0.00 | 0.00 | 0.00 | 53 | 1012.7 |
| 20260504034919 | 12 | 235 | 17.7 | 25.7 | 0.00 | 0.00 | 0.00 | 53 | 1012.7 |
| 20260504034628 | 12 | 225 | 17.7 | 25.7 | 0.00 | 0.00 | 0.00 | 53 | 1012.7 |
| 20260504033908 | 12 | 214 | 17.7 | 25.7 | 0.00 | 0.00 | 0.00 | 52 | 1012.7 |
| 20260504033355 | 12 | 229 | 19.3 | 29.0 | 0.00 | 0.00 | 0.00 | 51 | 1012.7 |
| 20260504032852 | 12 | 229 | 19.3 | 29.0 | 0.00 | 0.00 | 0.00 | 52 | 1012.7 |
| 20260504032354 | 12 | 226 | 19.3 | 27.4 | 0.00 | 0.00 | 0.00 | 52 | 1012.7 |
| 20260504031851 | 12 | 206 | 17.7 | 27.4 | 0.00 | 0.00 | 0.00 | 51 | 1012.7 |
| 20260504031352 | 12 | 217 | 17.7 | 25.7 | 0.00 | 0.00 | 0.00 | 52 | 1012.7 |
| 20260504030837 | 12 | 224 | 17.7 | 25.7 | 0.00 | 0.00 | 0.00 | 52 | 1012.6 |
| 20260504030336 | 12 | 224 | 16.1 | 25.7 | 0.00 | 0.00 | 0.00 | 52 | 1012.6 |
| 20260504025837 | 12 | 232 | 16.1 | 24.1 | 0.00 | 0.00 | 0.00 | 52 | 1012.6 |
| 20260504025307 | 12 | 225 | 16.1 | 20.9 | 0.00 | 0.00 | 0.00 | 52 | 1012.7 |
| 20260504024804 | 12 | 239 | 16.1 | 22.5 | 0.00 | 0.00 | 0.00 | 52 | 1012.7 |
| 20260504024306 | 12 | 241 | 16.1 | 24.1 | 0.00 | 0.00 | 0.00 | 51 | 1012.7 |
| 20260504023750 | 12 | 217 | 16.1 | 24.1 | 0.00 | 0.00 | 0.00 | 50 | 1012.7 |
| 20260504023225 | 12 | 237 | 17.7 | 25.7 | 0.00 | 0.00 | 0.00 | 50 | 1012.7 |
| 20260504022721 | 12 | 233 | 19.3 | 25.7 | 0.00 | 0.00 | 0.00 | 49 | 1012.7 |
| 20260504022218 | 12 | 229 | 16.1 | 24.1 | 0.00 | 0.00 | 0.00 | 49 | 1012.6 |
| 20260504021708 | 12 | 235 | 16.1 | 24.1 | 0.00 | 0.00 | 0.00 | 50 | 1012.6 |
| 20260504021145 | 13 | 231 | 16.1 | 22.5 | 0.00 | 0.00 | 0.00 | 51 | 1012.6 |
| 20260504020647 | 13 | 226 | 14.5 | 20.9 | 0.00 | 0.00 | 0.00 | 52 | 1012.6 |
| 20260504020127 | 13 | 236 | 16.1 | 22.5 | 0.00 | 0.00 | 0.00 | 51 | 1012.6 |
| 20260504015850 | 13 | 235 | 17.7 | 22.5 | 0.00 | 0.00 | 0.00 | 50 | 1012.6 |
| 20260504015106 | 13 | 248 | 16.1 | 22.5 | 0.00 | 0.00 | 0.00 | 50 | 1012.5 |
| 20260504014603 | 13 | 234 | 16.1 | 22.5 | 0.00 | 0.00 | 0.00 | 50 | 1012.5 |
| 20260504014058 | 13 | 220 | 16.1 | 22.5 | 0.00 | 0.00 | 0.00 | 50 | 1012.5 |
| 20260504013539 | 13 | 217 | 16.1 | 22.5 | 0.00 | 0.00 | 0.00 | 49 | 1012.3 |
| 20260504013042 | 13 | 230 | 16.1 | 22.5 | 0.00 | 0.00 | 0.00 | 49 | 1012.3 |
| 20260504012514 | 13 | 239 | 16.1 | 22.5 | 0.00 | 0.00 | 0.00 | 47 | 1012.3 |
| 20260504012012 | 13 | 219 | 16.1 | 22.5 | 0.00 | 0.00 | 0.00 | 48 | 1012.1 |
| 20260504011924 | 13 | 235 | 14.5 | 22.5 | 0.00 | 0.00 | 0.00 | 48 | 1012.1 |
| 20260504010940 | 13 | 226 | 14.5 | 20.9 | 0.00 | 0.00 | 0.00 | 49 | 1011.8 |
| 20260504010440 | 13 | 244 | 12.9 | 20.9 | 0.00 | 0.00 | 0.00 | 48 | 1011.8 |
| 20260504005914 | 13 | 215 | 12.9 | 19.3 | 0.00 | 0.00 | 0.00 | 49 | 1011.8 |
| 20260504005414 | 13 | 219 | 12.9 | 19.3 | 0.00 | 0.00 | 0.00 | 48 | 1011.8 |
| 20260504004852 | 13 | 228 | 11.3 | 19.3 | 0.00 | 0.00 | 0.00 | 48 | 1011.8 |
| 20260504004611 | 13 | 204 | 11.3 | 17.7 | 0.00 | 0.00 | 0.00 | 48 | 1011.8 |
| 20260504003848 | 14 | 218 | 12.9 | 19.3 | 0.00 | 0.00 | 0.00 | 47 | 1011.6 |
| 20260504003350 | 14 | 211 | 12.9 | 19.3 | 0.00 | 0.00 | 0.00 | 46 | 1011.6 |
| 20260504002838 | 14 | 230 | 14.5 | 19.3 | 0.00 | 0.00 | 0.00 | 45 | 1011.6 |
| 20260504002605 | 14 | 253 | 14.5 | 19.3 | 0.00 | 0.00 | 0.00 | 44 | 1011.3 |
| 20260504001836 | 14 | 242 | 12.9 | 19.3 | 0.00 | 0.00 | 0.00 | 44 | 1011.3 |
| 20260504001600 | 14 | 222 | 11.3 | 17.7 | 0.00 | 0.00 | 0.00 | 44 | 1011.3 |
| 20260504001049 | 14 | 222 | 11.3 | 17.7 | 0.00 | 0.00 | 0.00 | 42 | 1011.2 |
| 20260504000333 | 15 | 239 | 9.7 | 16.1 | 0.00 | 0.00 | 0.00 | 41 | 1011.2 |
| 20260503235814 | 15 | 226 | 9.7 | 16.1 | 0.00 | 0.00 | 0.00 | 44 | 1011.2 |
| 20260503235312 | 15 | 251 | 8.0 | 16.1 | 0.00 | 0.00 | 0.00 | 44 | 1011.2 |
| 20260503235036 | 15 | 250 | 9.7 | 16.1 | 0.00 | 0.00 | 0.00 | 42 | 1011.2 |
| 20260503234257 | 15 | 251 | 9.7 | 16.1 | 0.00 | 0.00 | 0.00 | 40 | 1011.2 |
| 20260503233754 | 15 | 242 | 9.7 | 16.1 | 0.00 | 0.00 | 0.00 | 38 | 1010.9 |
| 20260503233254 | 15 | 236 | 11.3 | 20.9 | 0.00 | 0.00 | 0.00 | 38 | 1010.9 |
| 20260503233003 | 15 | 290 | 11.3 | 20.9 | 0.00 | 0.00 | 0.00 | 37 | 1010.9 |
| 20260503232242 | 15 | 298 | 12.9 | 22.5 | 0.00 | 0.00 | 0.00 | 35 | 1011.0 |
| 20260503231727 | 15 | 270 | 12.9 | 24.1 | 0.00 | 0.00 | 0.00 | 35 | 1011.0 |
| 20260503231219 | 15 | 285 | 14.5 | 25.7 | 0.00 | 0.00 | 0.00 | 35 | 1011.0 |
| 20260503230713 | 15 | 295 | 17.7 | 25.7 | 0.00 | 0.00 | 0.00 | 34 | 1010.9 |
| 20260503230214 | 15 | 219 | 17.7 | 25.7 | 0.00 | 0.00 | 0.00 | 34 | 1010.9 |
| 20260503230123 | 15 | 289 | 20.9 | 33.8 | 0.00 | 0.00 | 0.00 | 33 | 1010.9 |
| 20260503225141 | 15 | 257 | 20.9 | 33.8 | 0.00 | 0.00 | 0.00 | 35 | 1010.7 |
| 20260503224642 | 15 | 265 | 17.7 | 27.4 | 0.00 | 0.00 | 0.00 | 34 | 1010.7 |
| 20260503224113 | 16 | 258 | 17.7 | 29.0 | 0.00 | 0.00 | 0.00 | 35 | 1010.7 |
| 20260503223610 | 16 | 292 | 20.9 | 33.8 | 0.00 | 0.00 | 0.00 | 34 | 1010.7 |
| 20260503223111 | 16 | 293 | 22.5 | 33.8 | 0.00 | 0.00 | 0.00 | 35 | 1010.7 |
| 20260503222550 | 16 | 302 | 22.5 | 32.2 | 0.00 | 0.00 | 0.00 | 34 | 1010.7 |
| 20260503222049 | 16 | 296 | 20.9 | 32.2 | 0.00 | 0.00 | 0.00 | 33 | 1010.7 |
| 20260503221815 | 16 | 298 | 25.7 | 41.8 | 0.00 | 0.00 | 0.00 | 35 | 1010.7 |
| 20260503221032 | 16 | 330 | 27.4 | 43.5 | 0.00 | 0.00 | 0.00 | 34 | 1010.7 |
| 20260503220527 | 16 | 246 | 24.1 | 43.5 | 0.00 | 0.00 | 0.00 | 33 | 1010.6 |
| 20260503220028 | 16 | 261 | 22.5 | 37.0 | 0.00 | 0.00 | 0.00 | 33 | 1010.6 |
| 20260503215506 | 16 | 252 | 24.1 | 37.0 | 0.00 | 0.00 | 0.00 | 33 | 1010.6 |
| 20260503215006 | 16 | 303 | 24.1 | 40.2 | 0.00 | 0.00 | 0.00 | 33 | 1010.5 |